Bemidji, MN

1:57 PM CDT on June 25, 2017 (GMT -0500)
Bemidji-Beltrami County

Weather History for KBJI - November, 2011

Change the Weather History Date:

Friday, November 25, 2011

  Actual Average Record
Temperature  
Mean Temperature 34 °F -  
Max Temperature 41 °F 27 °F 57 °F (1984)
Min Temperature 26 °F 12 °F -19 °F (1959)
Degree Days  
Heating Degree Days 32    
Moisture  
Dew Point 31 °F    
Average Humidity 89    
Maximum Humidity 100    
Minimum Humidity 70    
Precipitation  
Precipitation 0.00 in - - ()
Sea Level Pressure  
Sea Level Pressure 29.68 in    
Wind  
Wind Speed 4 mph (NE)    
Max Wind Speed 10 mph    
Max Gust Speed 16 mph    
Visibility 8 miles    
Events      
Averages and records for this station are not official NWS values.
T = Trace of Precipitation, MM = Missing Value Source: NWS Daily Summary

Daily Weather History Graph

Daily Weather History Graph

Search for Another Location

Airport or City:

Trip Planner

Search our weather history database for the weather conditions in past years. The results will help you decide how hot, cold, wet, or windy it might be!

Date:

Astronomy

Nov. 25, 2011 Rise Set
Actual Time 7:38 AM CST 4:34 PM CST
Civil Twilight 7:04 AM CST 5:08 PM CST
Nautical Twilight 6:25 AM CST 5:47 PM CST
Astronomical Twilight 5:49 AM CST 6:23 PM CST
Moon 8:11 AM CST 4:58 PM CST
Length of Visible Light 10h 04m
Length of Day
8h 55m
New Moon, 0% of the Moon is Illuminated
Nov 25
New Moon
Dec 2
First Quarter
Dec 10
Full
Dec 17
Last Quarter
Dec 24
New

Hourly Weather History & Observations

Time (CST) Temp. Windchill Dew Point Humidity Pressure Visibility Wind Dir Wind Speed Gust Speed Precip Events Conditions
12:15 AM 30.2 °F 26.7 °F 30.2 °F 100% 29.65 in 7.0 mi NW 3.5 mph - N/A   Clear
1:15 AM 26.6 °F - 26.6 °F 100% 29.66 in 7.0 mi Calm Calm - N/A   Clear
1:35 AM 28.4 °F - 28.4 °F 100% 29.65 in 10.0 mi Calm Calm - N/A   Clear
1:55 AM 28.4 °F - 26.6 °F 93% 29.66 in 7.0 mi Calm Calm - N/A   Clear
2:15 AM 26.6 °F - 24.8 °F 93% 29.66 in 4.0 mi Calm Calm - N/A   Clear
2:35 AM 26.6 °F 22.6 °F 26.6 °F 100% 29.66 in 5.0 mi NNW 3.5 mph - N/A   Clear
2:55 AM 28.4 °F - 28.4 °F 100% 29.67 in 7.0 mi Calm Calm - N/A   Clear
3:15 AM 30.2 °F - 30.2 °F 100% 29.67 in 7.0 mi Calm Calm - N/A   Clear
3:35 AM 28.4 °F - 28.4 °F 100% 29.66 in 7.0 mi Calm Calm - N/A   Clear
4:35 AM 30.2 °F - 28.4 °F 93% 29.67 in 7.0 mi Calm Calm - N/A   Clear
4:55 AM 30.2 °F 25.4 °F 28.4 °F 93% 29.68 in 7.0 mi North 4.6 mph - N/A   Clear
5:15 AM 32.0 °F 27.5 °F 30.2 °F 93% 29.69 in 10.0 mi North 4.6 mph - N/A   Clear
5:35 AM 32.0 °F 26.4 °F 30.2 °F 93% 29.69 in 7.0 mi North 5.8 mph - N/A   Clear
5:55 AM 32.0 °F 26.4 °F 30.2 °F 93% 29.69 in 10.0 mi NNE 5.8 mph - N/A   Clear
6:15 AM 32.0 °F 26.4 °F 30.2 °F 93% 29.68 in 7.0 mi NNE 5.8 mph - N/A   Clear
6:35 AM 32.0 °F 27.5 °F 30.2 °F 93% 29.68 in 7.0 mi NNE 4.6 mph - N/A   Clear
6:55 AM 32.0 °F 25.6 °F 30.2 °F 93% 29.70 in 7.0 mi NNE 6.9 mph - N/A   Clear
7:15 AM 32.0 °F 27.5 °F 30.2 °F 93% 29.71 in 7.0 mi North 4.6 mph - N/A   Clear
7:55 AM 30.2 °F 21.9 °F 30.2 °F 100% 29.71 in 7.0 mi North 9.2 mph - N/A   Clear
8:15 AM 30.2 °F 24.3 °F 30.2 °F 100% 29.71 in 7.0 mi NNE 5.8 mph - N/A   Clear
8:35 AM 30.2 °F 24.3 °F 30.2 °F 100% 29.71 in 7.0 mi NE 5.8 mph - N/A   Clear
8:55 AM 32.0 °F 26.4 °F 32.0 °F 100% 29.72 in 7.0 mi NNE 5.8 mph - N/A   Clear
9:15 AM 32.0 °F 26.4 °F 32.0 °F 100% 29.72 in 7.0 mi NNE 5.8 mph - N/A   Clear
9:35 AM 32.0 °F 26.4 °F 32.0 °F 100% 29.72 in 7.0 mi NE 5.8 mph - N/A   Clear
10:15 AM 33.8 °F 29.6 °F 32.0 °F 93% 29.73 in 7.0 mi NE 4.6 mph - N/A   Clear
10:55 AM 33.8 °F 29.6 °F 30.2 °F 87% 29.73 in 7.0 mi North 4.6 mph - N/A   Clear
11:15 AM 33.8 °F 29.6 °F 30.2 °F 87% 29.72 in 5.0 mi NE 4.6 mph - N/A   Haze
11:35 AM 35.6 °F 30.7 °F 32.0 °F 87% 29.70 in 7.0 mi NNE 5.8 mph - N/A   Clear
11:55 AM 35.6 °F 29.2 °F 32.0 °F 87% 29.68 in 7.0 mi NE 8.1 mph - N/A   Clear
12:35 PM 39.2 °F 33.0 °F 32.0 °F 75% 29.68 in 7.0 mi NNE 9.2 mph - N/A   Clear
12:55 PM 39.2 °F 33.6 °F 32.0 °F 75% 29.67 in 5.0 mi NNE 8.1 mph - N/A   Haze
1:15 PM 41.0 °F 35.2 °F 32.0 °F 70% 29.66 in 7.0 mi ENE 9.2 mph - N/A   Clear
1:35 PM 41.0 °F 34.7 °F 32.0 °F 70% 29.66 in 10.0 mi NE 10.4 mph - N/A   Clear
2:15 PM 39.2 °F 34.2 °F 32.0 °F 75% 29.66 in 7.0 mi NNE 6.9 mph - N/A   Clear
2:35 PM 39.2 °F 35.0 °F 32.0 °F 75% 29.66 in 7.0 mi NE 5.8 mph - N/A   Clear
2:55 PM 39.2 °F 35.9 °F 32.0 °F 75% 29.66 in 7.0 mi NE 4.6 mph - N/A   Clear
3:15 PM 37.4 °F 33.8 °F 32.0 °F 81% 29.67 in 7.0 mi ENE 4.6 mph - N/A   Clear
3:35 PM 37.4 °F 33.8 °F 32.0 °F 81% 29.67 in 7.0 mi ENE 4.6 mph - N/A   Clear
3:55 PM 37.4 °F 33.8 °F 32.0 °F 81% 29.67 in 7.0 mi ENE 4.6 mph - N/A   Clear
4:15 PM 35.6 °F 31.7 °F 30.2 °F 81% 29.68 in 7.0 mi NE 4.6 mph - N/A   Clear
4:35 PM 35.6 °F 31.7 °F 30.2 °F 81% 29.68 in 10.0 mi NE 4.6 mph - N/A   Clear
4:55 PM 35.6 °F 30.7 °F 32.0 °F 87% 29.68 in 10.0 mi NE 5.8 mph - N/A   Clear
5:15 PM 35.6 °F 29.2 °F 32.0 °F 87% 29.67 in 7.0 mi NE 8.1 mph - N/A   Clear
5:35 PM 35.6 °F 28.0 °F 32.0 °F 87% 29.66 in 7.0 mi ENE 10.4 mph - N/A   Clear
5:55 PM 35.6 °F 29.2 °F 32.0 °F 87% 29.67 in 10.0 mi ENE 8.1 mph - N/A   Scattered Clouds
6:15 PM 35.6 °F 29.2 °F 32.0 °F 87% 29.67 in 10.0 mi ENE 8.1 mph - N/A   Scattered Clouds
6:35 PM 35.6 °F 28.0 °F 32.0 °F 87% 29.67 in 10.0 mi ENE 10.4 mph - N/A   Mostly Cloudy
6:55 PM 35.6 °F 28.0 °F 32.0 °F 87% 29.68 in 7.0 mi East 10.4 mph 16.1 mph N/A   Overcast
7:35 PM 35.6 °F 29.2 °F 32.0 °F 87% 29.70 in 10.0 mi East 8.1 mph - N/A   Overcast
8:15 PM 35.6 °F 29.2 °F 32.0 °F 87% 29.70 in 10.0 mi ENE 8.1 mph - N/A   Overcast
8:35 PM 35.6 °F 28.6 °F 32.0 °F 87% 29.69 in 10.0 mi ENE 9.2 mph - N/A   Overcast
8:55 PM 35.6 °F 28.6 °F 32.0 °F 87% 29.70 in 10.0 mi ENE 9.2 mph - N/A   Overcast
9:15 PM 35.6 °F 29.9 °F 32.0 °F 87% 29.69 in 10.0 mi ENE 6.9 mph - N/A   Overcast
9:35 PM 35.6 °F 29.2 °F 32.0 °F 87% 29.68 in 7.0 mi ENE 8.1 mph - N/A   Overcast
9:55 PM 35.6 °F 29.2 °F 32.0 °F 87% 29.69 in 10.0 mi East 8.1 mph - N/A   Overcast
10:15 PM 35.6 °F 29.2 °F 32.0 °F 87% 29.68 in 10.0 mi East 8.1 mph - N/A   Overcast
10:35 PM 35.6 °F 29.2 °F 32.0 °F 87% 29.69 in 7.0 mi ENE 8.1 mph - N/A   Overcast
10:55 PM 35.6 °F 29.9 °F 32.0 °F 87% 29.69 in 7.0 mi ENE 6.9 mph - N/A   Overcast
11:15 PM 33.8 °F 27.0 °F 33.8 °F 100% 29.70 in 5.0 mi ENE 8.1 mph - N/A Rain Light Rain